This is the latest recevied weather packets stored in our database for station/object KK4MOR. If no packets are shown the sender has not sent any weather packets the latest 10 day(s).
| Time | Temp. | Humidity | Pressure | Rain* | Wind** | Luminosity | Snow |
|---|---|---|---|---|---|---|---|
| 1777848308 | 18.33° C | 42% | 1015.8 hPa | 0 mm | - | - | - |
| 1777847407 | 18.33° C | 43% | 1015.9 hPa | 0 mm | - | - | - |
| 1777846505 | 18.89° C | 41% | 1015.9 hPa | 0 mm | - | - | - |
| 1777845605 | 18.89° C | 44% | 1016 hPa | 0 mm | - | - | - |
| 1777844705 | 18.89° C | 43% | 1016.2 hPa | 0 mm | - | - | - |
| 1777843802 | 18.89° C | 45% | 1016.2 hPa | 0 mm | - | - | - |
| 1777842960 | 18.33° C | 43% | 1016.4 hPa | 0 mm | - | - | - |
| 1777842070 | 18.33° C | 43% | 1016.7 hPa | 0 mm | - | - | - |
| 1777841168 | 18.33° C | 41% | 1016.8 hPa | 0 mm | - | - | - |
| 1777840259 | 18.33° C | 41% | 1017.1 hPa | 0 mm | - | - | - |
| 1777839352 | 17.78° C | 43% | 1017.3 hPa | 0 mm | - | - | - |
| 1777838454 | 17.78° C | 41% | 1017.6 hPa | 0 mm | - | - | - |
| 1777837547 | 17.22° C | 41% | 1018 hPa | 0 mm | - | - | - |
| 1777836652 | 17.22° C | 41% | 1018.1 hPa | 0 mm | - | - | - |
| 1777835743 | 17.22° C | 37% | 1018.5 hPa | 0 mm | - | - | - |
| 1777834841 | 16.67° C | 40% | 1018.7 hPa | 0 mm | - | - | - |
| 1777833951 | 16.67° C | 42% | 1018.8 hPa | 0 mm | - | - | - |
| 1777833055 | 16.67° C | 44% | 1018.8 hPa | 0 mm | - | - | - |
| 1777832135 | 16.11° C | 44% | 1019 hPa | 0 mm | - | - | - |
| 1777831241 | 16.11° C | 42% | 1019 hPa | 0 mm | - | - | - |
| 1777830335 | 16.11° C | 46% | 1019.2 hPa | 0 mm | - | - | - |
| 1777829442 | 15.56° C | 47% | 1019.4 hPa | 0 mm | - | - | - |
| 1777828528 | 15° C | 47% | 1019.6 hPa | 0 mm | - | - | - |
| 1777827626 | 15° C | 51% | 1019.7 hPa | 0 mm | - | - | - |
| 1777826724 | 15° C | 54% | 1019.8 hPa | 0 mm | - | - | - |
* Rain latest hour (hover to see other rain measurements)
** Current wind speed in m/s (hover to see current wind gust speed)